DateTimeUTC,F1_A11,F1_S11,BsB_S11,BsG_S11,BsR_S11,BbsB_S11,BbsG_S11,BbsR_S11,BaB_A11,BaG_A11,BaR_A11,Tu_S11,T_S11,Uu_S11,U_S11,P_S11,T1_A11
2021-01-15T17:00:00Z,00000200,21000000,,,,,,,0000.10,0000.16,0000.05,16.4,23.7,,00.0,0643.7,30.9
2021-01-15T17:01:00Z,00000200,21000000,,,,,,,0000.00,0000.01,0000.01,16.4,23.7,,00.0,0643.7,30.9
2021-01-15T17:02:00Z,00000200,21000000,,,,,,,-000.00,-000.33,0000.22,16.4,23.7,,00.0,0643.7,30.9
2021-01-15T17:03:00Z,00000200,61000000,,,,,,,0000.15,0000.44,0000.06,16.4,23.7,,00.0,0643.7,30.8
2021-01-15T17:04:00Z,00000200,41000000,0000.61,0000.18,-000.01,0000.44,0000.13,-000.08,0000.03,-000.03,0000.06,16.6,23.5,,00.0,0644.4,30.9
2021-01-15T17:05:00Z,00000200,01000000,0000.28,0000.26,-000.12,0000.02,-000.20,-000.26,0000.18,0000.08,0000.09,16.7,23.5,,00.0,0644.5,30.9
2021-01-15T17:06:00Z,00000200,01000000,-000.07,0000.39,-000.04,0000.02,-000.02,-000.12,0000.28,0000.03,0000.27,16.8,23.5,,00.0,0644.5,30.9
2021-01-15T17:07:00Z,00000200,01000000,0000.12,0000.14,-000.03,0000.44,-000.01,0000.15,-000.21,0000.25,0000.28,16.9,23.6,,00.0,0644.5,30.9
2021-01-15T17:08:00Z,00000200,01010000,0000.19,0000.17,0000.08,0000.24,0000.05,0000.11,0000.53,-000.17,-000.07,17.0,23.6,,00.0,0644.5,30.9
2021-01-15T17:09:00Z,00000200,01000000,-000.76,-000.29,0000.28,0000.43,0000.10,0000.04,-000.19,0000.30,-000.24,17.1,23.7,,00.0,0644.4,30.9
2021-01-15T17:10:00Z,00000200,01000000,0000.21,-000.11,-000.05,-000.17,-000.06,-000.02,-000.20,0000.16,-000.05,17.2,23.7,,00.0,0644.4,30.9
2021-01-15T17:11:00Z,00000200,01000000,0000.24,0000.25,0000.24,-000.39,0000.10,-000.08,-000.31,-000.24,-000.09,17.2,23.7,,00.0,0644.4,30.9
2021-01-15T17:12:00Z,00000200,01000000,0000.88,-000.06,0000.23,0000.22,0000.20,-000.19,0000.07,0000.05,-000.01,17.2,23.7,,00.0,0644.4,30.9
2021-01-15T17:13:00Z,00000200,01000000,-000.34,-000.21,-000.29,0000.07,0000.07,0000.23,0000.10,-000.03,0000.03,17.2,23.7,,00.0,0644.4,30.9
2021-01-15T17:14:00Z,00000200,01000000,0000.40,0000.20,0000.01,-000.07,-000.02,-000.29,-000.21,-000.49,-000.42,17.1,23.7,,00.0,0644.5,30.9
2021-01-15T17:15:00Z,00000200,01000000,0000.17,0000.11,0000.05,-000.23,-000.10,0000.25,0000.26,0000.03,0000.18,17.1,23.7,,00.0,0644.5,30.9
2021-01-15T17:16:00Z,00000200,01000000,-000.10,0000.03,0000.09,-000.51,0000.10,-000.09,-000.23,0000.05,0000.04,17.1,23.7,,00.0,0644.5,30.9
2021-01-15T17:17:00Z,00000200,01000000,-000.08,0000.25,-000.41,0000.89,0000.22,-000.06,0000.27,-000.04,-000.04,17.1,23.7,,00.0,0644.5,30.9
2021-01-15T17:18:00Z,00000200,01000000,0000.05,-000.15,0000.09,0000.16,0000.14,0000.04,0000.25,0000.58,0000.47,17.1,23.7,,00.0,0644.5,30.9
2021-01-15T17:19:00Z,00000200,01000000,-000.25,-000.04,0000.03,-000.16,-000.05,0000.41,-000.12,-000.11,-000.04,17.1,23.7,,00.0,0644.5,30.9
2021-01-15T17:20:00Z,00000200,01000000,0000.02,-000.16,0000.04,-000.09,-000.05,-000.09,0000.03,-000.15,0000.38,17.2,23.7,,00.0,0644.5,30.9
2021-01-15T17:21:00Z,00000200,01000000,0000.47,0000.02,-000.04,0000.16,-000.13,0000.03,0000.21,0001.26,-000.18,17.3,23.8,,00.0,0644.5,30.9
2021-01-15T17:22:00Z,00000200,01000000,0000.48,0000.17,-000.04,0000.68,-000.16,0000.05,0000.05,-000.50,0000.02,17.4,23.9,,00.0,0644.5,30.9
2021-01-15T17:23:00Z,00000200,01000000,-000.17,-000.06,-000.14,-000.21,-000.15,-000.01,0000.19,0000.06,-000.17,17.5,23.9,,00.0,0644.5,31.0
2021-01-15T17:24:00Z,00000200,01000000,-000.14,0000.12,0000.01,-000.33,-000.00,-000.12,-000.29,-000.26,0000.24,17.6,24.0,,00.0,0644.5,31.0
2021-01-15T17:25:00Z,00000200,01000000,-000.05,0000.03,0000.15,-000.56,0000.05,0000.05,0000.22,-000.09,0000.20,17.6,24.0,,00.0,0644.5,31.0
2021-01-15T17:26:00Z,00000200,01000000,-000.27,0000.38,0000.01,-000.56,-000.04,0000.06,-000.13,-000.15,-000.40,17.7,24.0,,00.0,0644.5,31.0
2021-01-15T17:27:00Z,00000200,01000000,0000.04,0000.12,-000.05,0000.21,0000.03,-000.02,-000.47,-000.42,-000.10,17.7,24.1,,00.0,0644.5,31.0
2021-01-15T17:28:00Z,00000200,01000000,0000.01,-000.13,-000.23,-000.46,0000.20,0000.13,0000.12,0000.17,0000.12,17.6,24.1,,00.0,0644.5,31.0
2021-01-15T17:29:00Z,00000200,01000000,-000.61,0000.34,-000.07,0000.25,-000.06,-000.02,0000.09,0000.08,-000.10,17.6,24.1,,00.0,0644.5,31.0
2021-01-15T17:30:00Z,00000200,01000000,-000.20,0000.28,0000.35,0000.04,0000.08,0000.07,-000.50,-000.30,-000.24,17.6,24.0,,00.0,0644.5,31.0
2021-01-15T17:31:00Z,00000200,01000000,-000.09,-000.10,0000.08,0000.13,0000.02,0000.13,0000.33,0000.07,0000.12,17.5,24.0,,00.0,0644.5,31.0
2021-01-15T17:32:00Z,00000200,01000000,-000.44,0000.03,-000.03,0000.17,0000.07,-000.23,-000.18,-000.51,-000.24,17.5,24.0,,00.0,0644.5,30.9
2021-01-15T17:33:00Z,00000200,01000000,0000.42,-000.05,0000.18,0000.03,0000.01,0000.06,0000.01,0000.78,0000.34,17.5,24.0,,00.0,0644.5,30.9
2021-01-15T17:34:00Z,00000200,01000000,0000.37,0000.02,0000.18,0000.57,-000.05,-000.08,0000.18,0000.17,0000.01,17.5,24.0,,00.0,0644.5,30.9
2021-01-15T17:35:00Z,00000200,01000000,0000.28,-000.18,0000.26,-000.40,-000.11,0000.12,0000.28,0000.16,0000.25,17.6,24.0,,00.0,0644.5,31.0
2021-01-15T17:36:00Z,00000200,01000000,0000.13,0000.21,0000.09,0000.18,-000.14,-000.08,0000.11,0000.08,0000.20,17.6,24.1,,00.0,0644.6,31.0
2021-01-15T17:37:00Z,00000200,01000000,0000.40,-000.07,0000.02,-000.29,0000.01,0000.00,-000.34,-000.23,-000.33,17.7,24.1,,00.0,0644.6,31.0
2021-01-15T17:38:00Z,00000200,01000000,0000.31,0000.06,0000.15,-000.07,0000.04,0000.03,0000.03,-000.11,-000.06,17.8,24.2,,00.0,0644.6,31.0
2021-01-15T17:39:00Z,00000200,01000000,0000.11,-000.03,0000.20,0000.04,0000.16,0000.21,-000.21,-000.11,-000.07,17.9,24.2,,00.0,0644.7,31.0
2021-01-15T17:40:00Z,00000200,01000000,0000.27,-000.12,0000.11,0000.04,0000.06,0000.06,0000.17,-000.15,-000.16,17.9,24.3,,00.0,0644.6,31.0
2021-01-15T17:41:00Z,00000200,01000000,0000.52,0000.17,0000.29,0000.18,0000.19,0000.15,-000.19,-000.34,-000.10,17.9,24.3,,00.0,0644.6,31.0
2021-01-15T17:42:00Z,00000200,01000000,0000.11,-000.22,0000.11,-000.14,0000.01,0000.08,-000.14,0000.06,-000.30,17.9,24.3,,00.0,0644.6,31.0
2021-01-15T17:43:00Z,00000200,01000000,-000.26,0000.20,-000.02,-000.02,0000.12,0000.06,-000.32,-000.26,0000.27,17.8,24.3,,00.0,0644.5,31.0
2021-01-15T17:44:00Z,00000200,01000000,0000.04,0000.05,0000.00,0000.21,0000.15,0000.15,-000.05,-000.18,-000.31,17.7,24.2,,00.0,0644.5,31.0
2021-01-15T17:45:00Z,00000200,01000000,0000.21,0000.06,0000.09,-000.13,0000.02,0000.09,0000.37,0000.69,0000.25,17.7,24.2,,00.0,0644.4,31.0
2021-01-15T17:46:00Z,00000200,01000000,-000.30,-000.13,-000.05,0000.28,0000.09,0000.09,-000.24,-000.20,-000.22,17.6,24.2,,00.0,0644.4,31.0
2021-01-15T17:47:00Z,00000200,01000000,0000.16,-000.17,-000.00,0000.31,-000.11,0000.15,0000.19,-000.02,0000.17,17.6,24.2,,00.0,0644.4,30.9
2021-01-15T17:48:00Z,00000200,01000000,0000.44,0000.18,0000.09,0000.16,-000.12,0000.09,0000.22,-000.08,0000.23,17.5,24.2,,00.0,0644.4,31.0
2021-01-15T17:49:00Z,00000200,01000000,-000.01,0000.01,-000.10,-000.15,-000.01,0000.31,-000.15,0000.16,-000.16,17.5,24.1,,00.0,0644.4,30.9
2021-01-15T17:50:00Z,00000200,01000000,-000.33,0000.20,0000.12,0000.48,-000.05,0000.18,0000.33,-000.11,0000.24,17.5,24.1,,00.0,0644.4,30.9
2021-01-15T17:51:00Z,00000200,01000000,-000.03,0000.13,-000.15,0000.29,0000.15,0000.06,0000.01,0000.22,-000.35,17.4,24.1,,00.0,0644.3,30.9
2021-01-15T17:52:00Z,00000200,01000000,0000.51,-000.09,-000.12,-000.11,-000.03,0000.03,-000.11,0000.25,0000.52,17.4,24.1,,00.0,0644.3,30.9
2021-01-15T17:53:00Z,00000200,01000000,0000.55,-000.23,-000.14,0000.41,-000.12,-000.21,0000.17,-000.04,-000.14,17.3,24.1,,00.0,0644.3,30.9
2021-01-15T17:54:00Z,00000200,01000000,-000.15,-000.05,0000.19,-000.07,-000.08,-000.28,0000.31,-000.23,0000.14,17.3,24.1,,00.0,0644.3,30.9
2021-01-15T17:55:00Z,00000200,01000000,0000.01,0000.08,-000.08,0000.16,0000.18,0000.04,-000.30,0000.26,-000.17,17.3,24.0,,00.0,0644.3,30.9
2021-01-15T17:56:00Z,00000200,01000000,-000.72,-000.19,0000.38,-000.63,-000.08,0000.34,-000.06,0000.10,0000.07,17.2,24.0,,00.0,0644.3,30.9
2021-01-15T17:57:00Z,00000200,41000000,,,,,,,0000.09,0000.12,0000.08,17.3,24.0,,00.0,0644.3,30.9
2021-01-15T17:58:00Z,00000200,61000000,,,,,,,-000.22,-000.49,-000.51,16.8,24.1,,00.0,0643.4,30.9
2021-01-15T17:59:00Z,00000200,21000000,,,,,,,0000.15,0000.00,0000.31,16.8,24.2,,00.0,0643.4,30.9
